Station MCGM4 - 9099018 - Marquette C.G., MI Image indicating link to RSS feed of recent meteorological observations for station MCGM4


Conditions at MCGM4 as of
(4:30 pm EDT)
2030 GMT on 04/16/2024:
     

Click on the graph icon in the table below to see a time series plot of the last five days of that observation.

5-day plot - Wind Direction Wind Direction (WDIR):SSW ( 200 deg true )
5-day plot - Wind Speed Wind Speed (WSPD): 2.9 kts
5-day plot - Wind Gust Wind Gust (GST): 5.1 kts
5-day plot - Atmospheric Pressure Atmospheric Pressure (PRES):30.09 in
5-day plot - Air Temperature Air Temperature (ATMP): 39.2 °F
5-day plot - Dew Point Dew Point (DEWP): 31.6 °F
5-day plot - Wind Chill Wind Chill (CHILL): 37.0 °F
5-day plot - Wind Speed at 10 Meters Wind Speed at 10 meters (WSPD10M): 3.9 kts
5-day plot - Wind Speed at 20 Meters Wind Speed at 20 meters (WSPD20M): 3.9 kts
5-day plot -  Wind Speed, Wind Gust and Atmospheric Pressure Combined plot of Wind Speed, Gust, and Air Pressure
NOS Water Level Observation Network Water Level
Previous observations
TIME
(EDT)
5-day plot - Wind Direction
WDIR
 
5-day plot - Wind Speed
WSPD
kts
5-day plot - Wind Gust
GST
kts
5-day plot - Wave Height
WVHT
ft
5-day plot - Dominant Wave Period
DPD
sec
5-day plot - Average Wave Period
APD
sec
5-day plot - Mean Wave Direction
MWD
 
5-day plot - Atmospheric Pressure
PRES
in
5-day plot - Pressure Tendency
PTDY
in
5-day plot - Air Temperature
ATMP
°F
5-day plot - Water Temperature
WTMP
°F
5-day plot - Dew Point
DEWP
°F
5-day plot - Salinity
SAL
psu
5-day plot - Visibility
VIS
nmi
5-day plot - Tide (above MLLW)
TIDE
ft
2024-04-16 04:24 pm S 2.9 5.1----30.09- 38.7- 31.8---
2024-04-16 04:18 pm S 1.9 5.1----30.09- 38.7- 31.6---
2024-04-16 04:12 pmSSE 2.9 5.1----30.09- 37.9- 31.1---
2024-04-16 04:06 pmSSE 2.9 5.1----30.09- 38.3- 31.5---
2024-04-16 04:00 pm E 5.1 8.9----30.09-0.06 37.9- 31.3---
2024-04-16 03:54 pm E 7.0 12.0----30.09- 37.8- 31.3---
2024-04-16 03:48 pm E 8.0 12.0----30.09- 37.6- 31.1---
2024-04-16 03:42 pm E 7.0 12.0----30.09- 37.6- 31.1---
2024-04-16 03:36 pm E 7.0 8.9----30.10- 37.8- 30.9---
2024-04-16 03:30 pmESE 1.9 5.1----30.10- 38.8- 31.3---
2024-04-16 03:24 pm N 1.9 4.1----30.11- 39.7- 31.6---
2024-04-16 03:18 pm N 2.9 4.1----30.11- 39.6- 31.5---
2024-04-16 03:12 pmNNW 2.9 5.1----30.11- 39.2- 31.3---
2024-04-16 03:06 pm N 1.9 4.1----30.12- 39.9- 31.8---
2024-04-16 03:00 pm NE 1.0 2.9----30.13-0.07 39.2- 31.3---
2024-04-16 02:54 pmNNW 1.9 5.1----30.13- 38.7- 30.9---
2024-04-16 02:48 pmNNE 1.9 5.1----30.13- 39.4- 31.3---
2024-04-16 02:42 pm N 4.1 6.0----30.14- 38.7- 30.6---
2024-04-16 02:36 pmNNE 2.9 7.0----30.14- 38.8- 30.9---
2024-04-16 02:30 pmENE 4.1 8.0----30.13- 38.7- 31.3---
2024-04-16 02:24 pmENE 6.0 11.1----30.14- 38.7- 31.3---
2024-04-16 02:18 pmENE 5.1 8.9----30.14- 39.2- 31.5---
2024-04-16 02:12 pmENE 4.1 8.0----30.14- 39.6- 32.4---
2024-04-16 02:06 pm E 2.9 7.0----30.15- 38.3- 31.6---
2024-04-16 02:00 pm SE 4.1 5.1----30.15-0.04 39.0- 31.8---
2024-04-16 01:54 pm- 0.0 4.1----30.15- 40.5- 32.5---
2024-04-16 01:48 pmSSW 1.9 4.1----30.15- 39.9- 32.2---
2024-04-16 01:42 pm- 0.0 2.9----30.15- 40.5- 32.7---
2024-04-16 01:36 pm- 0.0 1.9----30.15- 40.1- 32.7---
2024-04-16 01:30 pmESE 1.9 5.1----30.15- 38.5- 32.2---
2024-04-16 01:24 pm E 2.9 8.0----30.16- 38.3- 32.0---
2024-04-16 01:18 pmENE 6.0 8.0----30.16- 38.1- 31.8---
2024-04-16 01:12 pmENE 1.9 5.1----30.15- 38.5- 32.2---
2024-04-16 01:06 pmENE 5.1 6.0----30.16- 37.9- 31.6---
2024-04-16 01:00 pm NE 1.0 2.9----30.16-0.04 38.8- 32.7---
2024-04-16 12:54 pm NE 1.0 4.1----30.16- 38.7- 32.4---
2024-04-16 12:48 pm NE 1.9 4.1----30.16- 38.5- 32.2---
2024-04-16 12:42 pm N 1.9 4.1----30.16- 39.0- 32.5---
2024-04-16 12:36 pm NE 1.0 4.1----30.16- 38.5- 32.2---
2024-04-16 12:30 pmNNE 1.0 2.9----30.17- 38.1- 32.2---
2024-04-16 12:24 pmNNE 1.9 4.1----30.17- 38.3- 32.2---
2024-04-16 12:18 pm NE 1.9 4.1----30.19- 38.3- 32.0---
2024-04-16 12:12 pmNNE 1.9 2.9----30.19- 38.3- 32.0---
2024-04-16 12:06 pm N 1.9 4.1----30.19- 38.7- 32.4---
2024-04-16 12:00 pmNNE 1.9 4.1----30.19+0.00 38.3- 31.8---
2024-04-16 11:54 amNNE 1.9 4.1----30.19- 38.7- 32.0---
2024-04-16 11:48 am NE 2.9 4.1----30.19- 38.5- 31.5---
2024-04-16 11:42 am N 1.9 4.1----30.20- 39.2- 32.2---
2024-04-16 11:36 am N 2.9 4.1----30.19- 39.0- 31.8---
2024-04-16 11:30 amNNE 1.9 4.1----30.19- 39.4- 31.8---
2024-04-16 11:24 amNNE 1.9 4.1----30.19- 39.2- 31.5---
2024-04-16 11:18 amNNE 1.9 4.1----30.19- 39.4- 31.5---
2024-04-16 11:12 amNNE 1.9 2.9----30.20- 39.0- 31.1---
2024-04-16 11:06 am NE 1.0 2.9----30.19- 38.7- 31.1---
2024-04-16 11:00 amENE 2.9 4.1----30.19+0.00 38.1- 30.4---
2024-04-16 10:54 am NE 1.9 2.9----30.19- 38.3- 30.2---
2024-04-16 10:48 am NE 1.9 4.1----30.19- 38.1- 30.0---
2024-04-16 10:42 amENE 1.9 2.9----30.19- 38.1- 29.7---
2024-04-16 10:36 amENE 1.9 2.9----30.19- 38.1- 29.5---
2024-04-16 10:30 am NE 1.9 2.9----30.19- 38.1- 29.3---
2024-04-16 10:24 amENE 1.0 2.9----30.19- 38.7- 29.7---
2024-04-16 10:18 am- 0.0 1.9----30.19- 38.5- 29.5---
2024-04-16 10:12 am- 0.0 1.9----30.19- 38.5- 29.3---
2024-04-16 10:06 am- 0.0 0.0----30.20- 39.0- 29.7---
2024-04-16 10:00 am- 0.0 1.9----30.19+0.04 38.5- 29.7---
2024-04-16 09:54 am- 0.0 1.9----30.19- 38.3- 29.5---
2024-04-16 09:48 am- 0.0 1.0----30.19- 38.5- 29.7---
2024-04-16 09:42 am- 0.0 1.0----30.19- 38.5- 29.3---
2024-04-16 09:36 am E 1.0 2.9----30.19- 38.1- 29.7---
2024-04-16 09:30 amENE 1.9 1.9----30.19- 37.2- 30.4---
2024-04-16 09:24 am- 0.0 1.0----30.19- 37.0- 31.6---
2024-04-16 09:18 am- 0.0 1.0----30.19- 36.5- 31.8---
2024-04-16 09:12 am S 1.0 2.9----30.20- 35.8- 30.9---
2024-04-16 09:06 am SE 1.9 4.1----30.19- 36.0- 29.7---
2024-04-16 09:00 amNNE 1.0 2.9----30.19+0.05 38.7- 29.5---
2024-04-16 08:54 amNNE 1.0 1.9----30.18- 38.7- 30.4---
2024-04-16 08:48 am N 1.9 1.9----30.19- 37.9- 31.3---
2024-04-16 08:42 am N 1.9 2.9----30.19- 37.0- 30.6---
2024-04-16 08:36 amNNE 2.9 4.1----30.18- 36.5- 30.4---
2024-04-16 08:30 am- 0.0 2.9----30.19- 36.9- 31.1---
2024-04-16 08:24 am N 2.9 5.1----30.18- 36.7- 30.6---
2024-04-16 08:18 am N 4.1 4.1----30.18- 36.5- 29.8---
2024-04-16 08:12 am N 2.9 4.1----30.18- 37.0- 30.2---
2024-04-16 08:06 amNNW 1.9 2.9----30.19- 37.0- 30.4---
2024-04-16 08:00 am SW 1.9 4.1----30.19+0.04 36.1- 30.0---
2024-04-16 07:54 am SW 4.1 4.1----30.19- 35.4- 29.3---
2024-04-16 07:48 am SW 1.0 4.1----30.18- 35.1- 29.3---
2024-04-16 07:42 am SW 4.1 4.1----30.17- 34.5- 28.9---
2024-04-16 07:36 amSSW 1.9 2.9----30.17- 34.5- 29.7---
2024-04-16 07:30 amSSE 1.9 1.9----30.16- 34.5- 29.1---
2024-04-16 07:24 am- 0.0 4.1----30.16- 34.5- 28.8---
2024-04-16 07:18 amSSW 2.9 5.1----30.16- 34.5- 28.2---
2024-04-16 07:12 amSSW 4.1 5.1----30.16- 34.7- 28.6---
2024-04-16 07:06 am SW 4.1 5.1----30.16- 34.3- 28.6---
2024-04-16 07:00 am SE 1.0 1.9----30.15+0.00 34.9- 29.3---
2024-04-16 06:54 am- 0.0 1.0----30.14- 34.9- 29.5---
2024-04-16 06:48 am- 0.0 1.0----30.14- 34.9- 28.9---
2024-04-16 06:42 am- 0.0 1.0----30.14- 34.5- 27.9---
2024-04-16 06:36 am- 0.0 1.0----30.14- 34.5- 27.9---
2024-04-16 06:30 am- 0.0 1.0----30.14- 33.8- 27.7---
2024-04-16 06:24 am N 1.0 1.9----30.14- 34.2- 28.6---
2024-04-16 06:18 amNNW 1.0 1.9----30.14- 34.3- 28.9---
2024-04-16 06:12 am- 0.0 1.9----30.15- 34.0- 28.9---
2024-04-16 06:06 am N 1.0 1.9----30.14- 34.3- 28.6---
2024-04-16 06:00 am- 0.0 1.0----30.14+0.01 34.5- 28.4---
2024-04-16 05:54 am- 0.0 1.0----30.14- 34.9- 28.8---
2024-04-16 05:48 amWSW 1.9 4.1----30.15- 35.1- 29.3---
2024-04-16 05:42 am SW 2.9 2.9----30.15- 35.1- 28.9---
2024-04-16 05:36 amSSW 2.9 4.1----30.15- 34.7- 28.6---
2024-04-16 05:30 amSSW 2.9 5.1----30.15- 35.1- 28.6---
2024-04-16 05:24 amSSW 4.1 4.1----30.15- 35.4- 28.8---
2024-04-16 05:18 am SW 2.9 4.1----30.15- 35.8- 28.4---
2024-04-16 05:12 am- 0.0 1.0----30.15- 35.4- 28.0---
2024-04-16 05:06 am- 0.0 1.0----30.15- 35.6- 28.2---
2024-04-16 05:00 am- 0.0 0.0----30.15+0.03 35.4- 28.6---
2024-04-16 04:54 am- 0.0 1.9----30.15- 35.6- 29.1---
2024-04-16 04:48 am W 1.0 2.9----30.15- 36.0- 28.9---
2024-04-16 04:42 am SW 1.9 2.9----30.15- 36.1- 28.8---
2024-04-16 04:36 am- 0.0 1.9----30.15- 36.0- 27.7---
2024-04-16 04:30 am NW 1.0 2.9----30.15- 36.1- 27.3---
2024-04-16 04:24 am N 1.0 2.9----30.14- 36.7- 27.5---
2024-04-16 04:18 am SW 1.9 4.1----30.14- 36.9- 28.0---
2024-04-16 04:12 am SW 2.9 5.1----30.14- 37.0- 27.7---
2024-04-16 04:06 am SW 4.1 5.1----30.15- 37.2- 28.6---
2024-04-16 04:00 am SW 5.1 5.1----30.15+0.03 36.9- 28.8---
2024-04-16 03:54 amSSW 1.9 2.9----30.15- 36.9- 29.7---
2024-04-16 03:48 amSSE 1.0 1.9----30.14- 36.5- 29.3---
2024-04-16 03:42 am- 0.0 0.0----30.14- 36.1- 28.0---
2024-04-16 03:36 am- 0.0 1.0----30.14- 36.7- 27.9---
2024-04-16 03:30 am- 0.0 1.0----30.14- 36.7- 27.9---
2024-04-16 03:24 am- 0.0 1.0----30.14- 36.9- 28.2---
2024-04-16 03:18 amWSW 1.0 2.9----30.14- 37.2- 28.4---
2024-04-16 03:12 am SW 2.9 4.1----30.13- 37.4- 29.3---
2024-04-16 03:06 am SW 4.1 4.1----30.13- 37.2- 29.8---
2024-04-16 03:00 am SW 2.9 4.1----30.13+0.02 37.2- 29.8---
2024-04-16 02:54 am SW 2.9 2.9----30.13- 36.9- 29.7---
2024-04-16 02:48 am SW 1.9 2.9----30.12- 36.7- 29.7---
2024-04-16 02:42 am S 1.9 2.9----30.12- 36.9- 29.7---
2024-04-16 02:36 am- 0.0 1.0----30.12- 37.0- 27.7---
2024-04-16 02:30 am N 1.0 1.9----30.12- 37.2- 27.9---
2024-04-16 02:24 am- 0.0 1.0----30.12- 37.4- 27.9---
2024-04-16 02:18 am- 0.0 1.0----30.12- 37.6- 28.6---
2024-04-16 02:12 amWSW 1.9 1.9----30.12- 38.1- 28.8---
2024-04-16 02:06 am SW 1.9 2.9----30.13- 37.9- 30.6---
2024-04-16 02:00 am SW 2.9 2.9----30.13+0.03 37.4- 30.6---
2024-04-16 01:54 am SW 2.9 4.1----30.13- 37.4- 30.0---
2024-04-16 01:48 am SW 1.9 2.9----30.13- 37.8- 30.7---
2024-04-16 01:42 am- 0.0 1.0----30.13- 37.6- 30.7---
2024-04-16 01:36 am- 0.0 1.0----30.13- 37.4- 30.4---
2024-04-16 01:30 amWSW 1.0 2.9----30.13- 37.6- 30.7---
2024-04-16 01:24 amWSW 1.9 2.9----30.13- 37.4- 30.7---
2024-04-16 01:18 am SW 2.9 2.9----30.13- 37.4- 30.6---
2024-04-16 01:12 am SW 2.9 4.1----30.12- 37.4- 30.4---
2024-04-16 01:06 am S 1.0 1.0----30.12- 37.8- 32.0---
2024-04-16 01:00 am- 0.0 0.0----30.12+0.02 37.6- 31.8---
2024-04-16 12:54 am- 0.0 0.0----30.12- 37.4- 30.9---
2024-04-16 12:48 am- 0.0 0.0----30.12- 37.8- 30.6---
2024-04-16 12:42 am- 0.0 0.0----30.12- 37.9- 29.7---
2024-04-16 12:36 am- 0.0 1.0----30.12- 38.7- 29.5---
2024-04-16 12:30 am- 0.0 1.0----30.11- 39.0- 28.9---
2024-04-16 12:24 am- 0.0 1.0----30.11- 39.2- 29.3---
2024-04-16 12:18 am- 0.0 1.9----30.11- 39.4- 29.8---
2024-04-16 12:12 am SW 1.9 1.9----30.11- 39.7- 30.2---
2024-04-16 12:06 amWSW 1.9 2.9----30.11- 39.7- 30.9---
2024-04-16 12:00 am SW 2.9 2.9----30.11+0.02 40.1- 30.7---
2024-04-15 11:54 pm SW 2.9 4.1----30.11- 40.1- 30.6---
2024-04-15 11:48 pmWSW 2.9 4.1----30.11- 39.4- 31.3---
2024-04-15 11:42 pm SW 2.9 2.9----30.10- 38.8- 31.6---
2024-04-15 11:36 pm- 0.0 1.9----30.10- 39.0- 31.6---
2024-04-15 11:30 pmWSW 1.9 1.9----30.10- 39.2- 31.6---
2024-04-15 11:24 pm SW 1.0 1.9----30.10- 39.2- 31.8---
2024-04-15 11:18 pmSSW 1.9 1.9----30.10- 39.0- 31.6---
2024-04-15 11:12 pm- 0.0 0.0----30.10- 39.2- 32.5---
2024-04-15 11:06 pm- 0.0 0.0----30.10- 39.2- 32.4---
2024-04-15 11:00 pm- 0.0 1.9----30.10+0.02 39.4- 32.5---
2024-04-15 10:54 pm- 0.0 1.9----30.10- 39.9- 32.2---
2024-04-15 10:48 pm- 0.0 1.0----30.10- 40.1- 32.2---
2024-04-15 10:42 pm- 0.0 1.0----30.10- 40.3- 31.8---
2024-04-15 10:36 pm- 0.0 0.0----30.10- 40.3- 31.1---
2024-04-15 10:30 pm- 0.0 0.0----30.10-------
2024-04-15 10:24 pm- 0.0 1.9----30.10-------
2024-04-15 10:18 pm SW 1.0 2.9----30.10- 40.6- 33.1---
2024-04-15 10:12 pm SW 2.9 4.1----30.10- 40.6- 31.8---
2024-04-15 10:06 pm SW 2.9 2.9----30.10- 40.6- 30.6---
2024-04-15 10:00 pmSSW 1.9 1.9----30.10+0.02 41.9- 30.6---
2024-04-15 09:54 pm SW 1.9 2.9----30.10- 42.4- 30.6---
2024-04-15 09:48 pmWSW 2.9 2.9----30.10- 41.9- 30.6---
2024-04-15 09:42 pm SW 1.0 1.9----30.09- 41.0- 31.8---
2024-04-15 09:36 pm SW 1.9 1.9----30.09- 41.0- 31.6---
2024-04-15 09:30 pm SW 1.0 1.9----30.09- 41.0- 31.8---
2024-04-15 09:24 pmSSW 1.0 2.9----30.09- 41.0- 31.8---
2024-04-15 09:18 pmSSW 2.9 2.9----30.09- 41.2- 31.5---
2024-04-15 09:12 pmSSW 1.9 2.9----30.09- 41.0- 30.7---
2024-04-15 09:06 pmSSW 2.9 4.1----30.09- 41.2- 30.2---
2024-04-15 09:00 pm SW 2.9 2.9----30.09+0.01------
2024-04-15 08:54 pm S 1.9 4.1----30.09-------
2024-04-15 08:48 pmSSE 2.9 2.9----30.09- 40.6- 30.2---
2024-04-15 08:42 pm- 0.0 1.0----30.08- 41.7- 30.0---
2024-04-15 08:36 pm SW 1.0 1.0----30.08- 41.7- 29.8---
2024-04-15 08:30 pm- 0.0 1.9----30.08- 41.2- 29.8---
2024-04-15 08:24 pmSSE 1.9 1.9----30.08- 40.1- 30.4---
2024-04-15 08:18 pm S 1.9 2.9----30.08-------
2024-04-15 08:12 pmSSW 1.0 1.9----30.08-------
2024-04-15 08:06 pm- 0.0 1.9----30.08-------
2024-04-15 08:00 pmSSW 1.0 2.9----30.08+0.01 40.3- 31.8---
2024-04-15 07:54 pm S 2.9 2.9----30.08- 39.7- 30.7---
2024-04-15 07:48 pm S 2.9 5.1----30.08- 39.6- 30.9---
2024-04-15 07:42 pm S 2.9 4.1----30.08- 39.4- 31.5---
2024-04-15 07:36 pm SE 1.9 1.9----30.08- 39.6- 31.3---
2024-04-15 07:30 pmESE 1.9 2.9----30.08- 39.4- 31.3---
2024-04-15 07:24 pm E 1.9 2.9----30.08- 40.1- 30.0---
2024-04-15 07:18 pm E 1.9 2.9----30.08- 39.9- 29.8---
2024-04-15 07:12 pm E 1.9 4.1----30.08- 41.5- 30.4---
2024-04-15 07:06 pm E 4.1 4.1----30.08- 41.5- 30.2---
2024-04-15 07:00 pm E 2.9 4.1----30.08+0.03 42.3- 30.9---
2024-04-15 06:54 pm NE 1.9 5.1----30.08- 42.6- 31.6---
2024-04-15 06:48 pm N 2.9 5.1----30.08- 43.5- 31.5---
2024-04-15 06:42 pmNNE 1.9 4.1----30.08- 42.4- 30.6---
2024-04-15 06:36 pmNNE 1.9 4.1----30.08- 42.8- 31.3---
2024-04-15 06:30 pm N 4.1 6.0----30.08-------
2024-04-15 06:24 pm N 5.1 7.0----30.08-------
2024-04-15 06:18 pm N 5.1 7.0----30.08- 42.1- 30.7---
2024-04-15 06:12 pm NE 1.9 5.1----30.07- 43.0- 31.8---
2024-04-15 06:06 pm N 1.9 6.0----30.07- 43.9- 32.0---
2024-04-15 06:00 pm N 5.1 7.0----30.07+0.04 42.6- 31.1---
2024-04-15 05:54 pm N 5.1 8.9----30.07- 42.6- 31.5---
2024-04-15 05:48 pm N 6.0 8.9----30.07- 42.6- 31.8---
2024-04-15 05:42 pm N 8.0 9.9----30.07- 43.2- 31.1---
2024-04-15 05:36 pm N 8.0 9.9----30.07- 43.7- 30.7---
2024-04-15 05:30 pm N 8.0 8.9----30.07- 43.5- 30.4---
2024-04-15 05:24 pm N 7.0 9.9----30.07- 43.5- 31.1---
2024-04-15 05:18 pm N 8.0 11.1------ 43.0- 30.9---
2024-04-15 05:12 pm N 8.0 11.1------ 43.0- 31.3---
2024-04-15 05:06 pm N 8.0 14.0------ 43.2- 31.6---
2024-04-15 05:00 pm N 7.0 11.1----30.07+0.06 43.3- 31.6---
2024-04-15 04:54 pm N 8.0 13.0----30.06- 43.0- 32.2---